Location: *
(53.9002°N, 27.5624°E)
Time: 05:30:14
(UTC+00:00)

Cosmos 1825 - Pass Details

Date: 12 November 2019
Orbit: 504 x 508 km, 82.5° (Epoch: 05 December)

Event Time Altitude Azimuth Distance (km) Brightness Sun altitude
Rises 15:34:50 0° 344° (NNW) 2,623 5.8 -11.5°
Reaches altitude 10° 15:37:01 10° 339° (NNW) 1,733 4.9 -11.8°
Maximum altitude 15:40:41 49° 265° (W) 660 3.2 -12.3°
Drops below altitude 10° 15:44:20 10° 189° (S) 1,720 5.1 -12.9°
Sets 15:46:29 0° 184° (S) 2,601 6.0 -13.2°
